{"data":{"norad_id":61546,"intl_designator":"2024-184Q","name":"STARLINK-32445","alt_names":[],"object_type":"PAYLOAD","status":"ACTIVE","operator":null,"country":"US","launch_date":"2024-10-15","launch_site_code":"AFWTR","launch_vehicle":null,"mission":null,"orbit_class":"UNKNOWN","rcs_meters":null,"size_class":null,"mass_kg":null,"dimensions":null,"purposes":["comms"],"wikipedia_slug":null,"has_3d_model":false,"image_url":null,"decayed_at":null,"tle_current":{"epoch":"2026-05-25T04:00:03.998880Z","epoch_age_seconds":63948,"freshness":"FRESH","line1":"1 61546U 24184Q   26145.16671295  .00033538  00000+0  10001-2 0  9991","line2":"2 61546  53.1601  18.8084 0001088  76.5227 320.3886 15.34375111  5809","mean_motion":15.34375111,"eccentricity":0.0001088,"inclination_deg":53.1601,"raan_deg":18.8084,"arg_perigee_deg":76.5227,"mean_anomaly_deg":320.3886,"bstar":0.0010001,"rev_number":580,"period_min":93.849280379783,"perigee_km":462.03292509342,"apogee_km":463.52150802694,"semimajor_km":6840.9142165602,"source":"CELESTRAK","updated_at":"2026-05-25T13:38:19.399971Z"}}}